Date,TemperatureHighF,TemperatureAvgF,TemperatureLowF,DewpointHighF,DewpointAvgF,DewpointLowF,HumidityHigh,HumidityAvg,HumidityLow,PressureMaxIn,PressureMinIn,WindSpeedMaxMPH,WindSpeedAvgMPH,GustSpeedMaxMPH,PrecipitationSumIn
2014-1-1,33.9,28.3,21.9,24.0,20.3,13.9,81,72,64,30.41,30.19,5,0,9,0.00
2014-1-2,30.8,26.5,18.3,25.5,22.4,16.3,93,84,73,30.19,29.69,12,4,15,0.00
2014-1-3,19.9,14.2,4.6,19.4,6.8,-0.7,100,73,51,30.49,29.67,15,4,26,0.06
2014-1-4,28.1,14.4,1.2,15.6,7.5,-2.0,89,75,56,30.54,30.29,12,2,17,0.00
2014-1-5,39.7,22.3,9.1,39.2,20.7,6.8,100,93,83,30.31,29.69,8,1,10,0.00
2014-1-6,56.3,37.2,7.4,55.6,29.4,-8.8,100,75,42,29.95,29.40,21,8,33,0.34
2014-1-7,10.3,6.0,0.5,-2.8,-8.0,-14.2,59,52,46,30.44,29.94,18,7,29,0.00
2014-1-8,23.1,14.6,5.8,10.4,3.0,-3.2,76,60,43,30.59,30.44,13,2,16,0.00
2014-1-9,33.7,25.3,17.5,18.0,14.8,9.2,80,65,48,30.68,30.51,5,1,8,0.00
2014-1-10,34.3,30.9,27.1,33.6,27.5,17.6,98,87,66,30.57,30.16,4,0,7,0.35
2014-1-11,61.4,46.2,33.9,60.1,45.6,33.4,100,98,92,30.16,29.30,19,3,31,1.13
2014-1-12,47.2,40.2,30.6,45.4,32.7,28.2,94,75,65,30.09,29.47,12,4,22,0.00
2014-1-13,54.3,40.9,26.2,39.6,33.6,25.2,97,77,54,30.11,29.83,12,2,18,0.01
2014-1-14,51.0,45.1,33.3,45.6,42.3,32.6,98,91,63,29.89,29.67,11,2,18,0.45
2014-1-15,39.7,34.2,27.8,39.7,33.7,27.3,100,98,83,29.97,29.87,6,1,10,0.00
2014-1-16,38.8,33.1,25.4,31.1,23.4,19.9,85,68,49,29.99,29.85,9,2,14,0.00
2014-1-17,41.9,31.9,23.2,31.2,26.3,20.3,91,80,62,29.97,29.83,4,0,6,0.00
2014-1-18,33.9,28.1,19.2,31.3,21.1,11.4,96,76,56,29.95,29.77,17,4,23,0.03
2014-1-19,36.4,32.6,19.2,26.4,22.8,12.0,74,67,62,29.92,29.68,12,5,18,0.01
2014-1-20,42.0,37.2,31.4,32.3,26.8,22.9,76,66,57,29.88,29.62,10,3,16,0.00
2014-1-21,34.0,20.4,10.3,25.0,15.2,2.1,99,81,63,29.98,29.83,16,5,20,0.00
2014-1-22,16.3,8.9,2.5,3.5,-0.8,-4.8,79,64,54,30.06,29.89,15,5,22,0.03
2014-1-23,21.2,13.5,3.5,9.3,4.1,-1.2,84,66,52,30.36,30.06,12,3,20,0.00
2014-1-24,18.3,13.6,8.2,4.2,2.0,0.1,70,60,50,30.47,30.05,14,5,20,0.00
2014-1-25,23.8,20.8,16.8,20.3,12.1,1.7,89,70,47,30.05,29.46,15,5,20,0.00
2014-1-26,23.9,20.4,12.9,19.3,10.2,3.6,85,65,48,29.93,29.57,13,4,23,0.00
2014-1-27,40.0,24.7,16.5,27.7,13.4,1.3,84,64,38,30.16,29.62,15,4,28,0.03
2014-1-28,16.4,12.3,8.2,6.3,-2.6,-5.8,80,51,43,30.43,30.15,12,3,20,0.00
2014-1-29,20.8,14.3,7.7,6.8,-0.5,-6.0,82,52,39,30.34,30.18,14,4,21,0.00
2014-1-30,28.7,17.7,4.6,9.3,4.0,-0.6,87,56,37,30.49,30.19,9,2,12,0.01
2014-1-31,36.2,27.4,18.6,24.4,17.6,9.0,83,67,51,30.24,30.10,6,1,8,0.00
2014-2-1,47.0,36.6,27.1,34.0,26.4,22.8,89,69,41,30.31,29.99,11,2,15,0.00
2014-2-2,49.9,38.1,28.4,38.3,33.3,27.2,97,84,60,30.10,29.92,8,1,12,0.01
2014-2-3,40.5,32.5,23.0,35.7,30.6,-63.2,97,93,80,30.33,30.08,8,1,12,0.08
2014-2-4,32.0,24.5,16.4,26.5,20.6,14.2,94,85,67,30.48,30.23,8,1,9,0.28
2014-2-5,34.7,32.2,27.5,34.0,30.7,21.8,98,94,79,30.24,29.66,16,2,25,0.08
2014-2-6,30.8,24.5,20.2,21.7,18.3,14.7,93,77,62,30.33,30.07,12,2,21,0.15
2014-2-7,32.1,25.9,18.2,21.8,17.7,13.1,89,71,55,30.34,30.25,10,3,17,0.11
2014-2-8,28.9,22.7,16.4,16.3,11.2,6.1,83,62,41,30.35,30.18,6,1,10,0.01
2014-2-9,26.4,22.1,15.2,22.6,17.2,12.3,94,82,64,30.21,30.00,5,1,7,0.00
2014-2-10,29.0,22.7,17.1,21.9,13.0,9.5,94,67,47,30.30,30.05,15,3,18,0.73
2014-2-11,26.0,18.1,8.8,10.1,7.5,4.3,92,64,44,30.50,30.30,11,3,15,0.00
2014-2-12,22.9,16.0,4.7,18.2,7.2,0.9,91,69,53,30.57,30.25,9,2,12,0.00
2014-2-13,34.7,29.2,20.4,33.9,28.1,18.2,100,95,91,30.25,29.18,21,6,28,0.01
2014-2-14,41.9,34.0,27.8,31.7,27.8,23.0,98,79,56,29.77,29.22,18,4,31,0.39
2014-2-15,33.8,31.1,25.9,31.8,27.4,14.2,96,87,61,29.87,29.63,16,4,27,0.07
2014-2-16,29.1,22.9,17.5,18.6,13.3,9.1,83,67,51,30.19,29.87,13,4,22,0.03
2014-2-17,31.4,22.8,13.9,15.4,9.4,6.3,76,57,40,30.45,30.19,11,2,18,0.09
2014-2-18,39.6,29.6,23.4,31.9,25.3,12.1,95,85,58,30.27,29.99,12,2,16,0.14
2014-2-19,44.9,33.2,24.2,37.0,29.0,22.3,95,85,67,30.09,29.76,11,2,17,0.02
2014-2-20,49.8,40.6,27.9,32.3,28.2,22.8,91,63,37,30.27,29.97,8,2,13,0.00
2014-2-21,43.2,38.2,31.8,43.2,36.6,30.9,100,94,75,29.97,29.63,12,2,24,0.15
2014-2-22,53.6,43.1,33.5,35.5,26.7,22.6,99,55,33,30.06,29.93,19,4,24,0.00
2014-2-23,52.0,42.7,32.8,35.7,31.2,28.4,90,65,45,30.01,29.86,12,2,20,0.04
2014-2-24,38.7,33.5,27.0,32.2,17.6,12.2,80,52,40,30.11,29.86,15,4,25,0.00
2014-2-25,32.5,26.9,22.5,21.2,15.0,12.5,72,61,49,30.10,29.97,14,3,21,0.00
2014-2-26,29.9,23.1,13.5,22.5,11.1,0.9,90,62,34,29.98,29.86,15,3,25,0.02
2014-2-27,30.9,18.8,7.7,16.3,5.1,-9.7,80,56,35,30.17,29.67,18,5,30,0.00
2014-2-28,23.6,14.4,7.1,2.2,-4.9,-10.7,63,42,25,30.44,30.17,11,2,17,0.00
2014-3-1,36.4,23.4,8.4,21.5,11.3,0.9,80,61,41,30.41,30.16,9,1,12,0.00
2014-3-2,39.9,32.9,27.7,33.0,26.7,21.0,95,78,61,30.16,30.01,9,1,12,0.06
2014-3-3,29.8,19.4,13.1,22.0,8.3,2.6,86,62,49,30.36,30.02,13,5,20,0.00
2014-3-4,31.2,19.8,9.6,9.0,4.7,1.0,72,53,33,30.43,30.25,8,1,9,0.02
2014-3-5,39.5,27.8,16.9,15.8,11.7,7.7,79,53,29,30.46,30.21,15,3,21,0.00
2014-3-6,30.2,23.7,17.5,18.1,8.7,1.6,76,53,36,30.63,30.44,13,4,16,0.00
2014-3-7,39.6,31.2,22.9,29.2,23.8,15.6,86,74,65,30.44,29.92,10,2,13,0.00
2014-3-8,54.8,41.7,26.7,36.2,31.2,23.8,89,68,47,29.93,29.83,12,3,20,0.00
2014-3-9,42.5,38.8,32.8,36.8,24.8,17.5,85,58,39,30.07,29.90,14,4,23,0.00
2014-3-10,54.4,42.8,32.5,35.0,28.3,19.7,73,57,47,29.96,29.60,13,4,17,0.00
2014-3-11,63.4,49.8,38.0,44.6,38.4,31.5,80,66,49,29.68,29.58,12,2,17,0.00
2014-3-12,53.8,44.8,24.7,49.8,39.9,15.3,98,83,67,29.65,28.99,19,3,36,0.37
2014-3-13,31.2,24.3,18.2,14.8,6.6,-0.0,67,48,27,30.14,29.39,20,8,39,0.00
2014-3-14,48.2,35.0,19.9,27.6,17.2,5.2,69,49,34,30.21,29.84,15,3,20,0.00
2014-3-15,56.9,50.4,42.0,36.8,29.4,25.8,62,45,34,30.04,29.75,16,4,29,0.00
2014-3-16,42.0,34.5,28.8,28.3,15.3,6.9,61,46,31,30.20,30.03,14,5,20,0.00
2014-3-17,34.1,28.7,21.9,19.8,12.9,2.3,89,53,34,30.12,30.02,15,4,20,0.01
2014-3-18,45.6,35.9,30.0,24.9,15.3,8.7,50,43,33,30.26,30.10,12,3,16,0.00
2014-3-19,43.1,37.9,33.5,41.0,33.2,14.5,98,84,43,30.25,29.83,11,4,16,0.40
2014-3-20,52.2,43.7,38.8,43.4,33.8,25.9,100,72,41,29.95,29.76,21,4,36,0.00
2014-3-21,53.5,42.2,32.5,27.9,25.0,19.5,74,53,28,30.04,29.94,15,4,21,0.00
2014-3-22,64.1,47.7,33.0,41.5,31.2,23.5,80,56,31,30.01,29.79,14,4,22,0.00
2014-3-23,45.6,38.7,27.4,28.6,22.7,12.7,62,53,35,30.17,29.98,13,4,18,0.00
2014-3-24,34.4,27.1,20.4,14.9,8.7,5.3,59,46,30,30.29,30.14,13,4,21,0.00
2014-3-25,35.3,27.7,18.4,30.2,20.9,11.0,92,76,55,30.16,29.89,11,2,16,0.02
2014-3-26,34.3,30.6,27.3,28.3,15.7,2.1,93,58,29,30.19,29.85,20,6,32,0.00
2014-3-27,41.5,38.9,35.2,25.6,21.8,17.6,66,51,38,30.29,30.22,10,2,15,0.00
2014-3-28,60.9,47.6,33.1,53.9,41.7,24.5,95,80,66,30.22,29.96,16,3,22,0.11
2014-3-29,56.2,47.6,45.1,51.4,45.1,41.3,98,91,77,30.12,29.60,12,4,17,0.72
2014-3-30,46.8,42.2,36.8,46.5,40.0,33.1,99,92,83,29.77,29.51,16,6,25,0.81
2014-3-31,58.2,46.2,35.8,37.8,33.3,29.4,90,64,36,30.10,29.76,17,8,26,0.04
2014-4-1,59.6,47.4,32.2,38.6,33.9,27.8,86,61,41,30.15,29.95,10,2,13,0.00
2014-4-2,60.8,48.5,41.4,49.3,42.1,36.7,97,80,54,30.14,30.00,7,1,9,0.15
2014-4-3,62.2,53.4,47.3,46.8,36.9,28.0,95,58,29,30.13,29.95,8,2,12,0.27
2014-4-4,47.0,44.1,42.0,46.0,42.4,40.8,98,94,86,30.01,29.74,12,6,20,0.15
2014-4-5,51.6,45.0,38.4,41.9,35.2,27.3,99,70,50,30.12,29.74,18,5,30,0.00
2014-4-6,58.4,45.0,34.0,32.2,27.1,23.7,70,52,30,30.24,30.11,9,2,13,0.00
2014-4-7,47.5,42.1,34.6,47.0,37.2,27.6,98,83,62,30.18,29.63,12,3,16,0.25
2014-4-8,60.9,53.9,43.4,55.1,45.9,36.9,100,77,52,29.67,29.44,11,1,20,0.08
2014-4-9,62.4,50.4,38.1,41.2,33.5,25.9,92,57,27,30.03,29.65,15,3,25,0.00
2014-4-10,65.8,52.6,33.9,39.9,34.7,29.0,83,53,34,30.19,29.99,18,5,24,0.00
2014-4-11,74.2,60.8,53.1,54.4,46.2,38.4,97,61,35,30.03,29.93,16,4,23,0.05
2014-4-12,70.8,59.2,46.5,52.8,44.3,33.3,99,64,29,30.23,30.01,12,2,15,0.00
2014-4-13,79.5,65.7,54.0,59.8,53.4,33.1,90,66,40,30.15,29.93,19,5,25,0.00
2014-4-14,74.7,68.9,63.0,61.0,57.7,55.4,81,68,56,29.96,29.77,20,9,30,0.00
2014-4-15,66.8,55.6,33.8,64.6,52.6,31.1,97,90,74,29.99,29.48,17,6,29,1.29
2014-4-16,45.9,36.7,27.4,31.2,21.0,14.4,86,54,37,30.56,29.98,16,6,27,0.04
2014-4-17,53.2,42.0,30.2,35.3,27.9,19.2,75,58,43,30.69,30.55,13,3,17,0.00
2014-4-18,54.4,44.0,35.8,37.5,33.6,29.9,83,68,47,30.62,30.25,8,2,12,0.00
2014-4-19,63.9,53.5,40.1,42.0,33.2,24.5,84,50,26,30.32,30.23,15,4,20,0.00
2014-4-20,61.3,52.4,44.3,40.4,33.2,27.2,62,48,39,30.45,30.31,11,4,16,0.00
2014-4-21,69.2,52.6,33.5,37.0,30.0,20.7,82,47,20,30.31,29.85,11,2,15,0.00
2014-4-22,68.5,55.9,47.1,57.6,46.9,35.0,94,73,51,29.85,29.54,10,2,17,0.14
2014-4-23,56.0,49.8,44.1,46.2,36.9,31.0,76,61,52,29.93,29.58,17,6,30,0.00
2014-4-24,61.2,50.0,39.6,31.9,23.7,18.0,64,38,20,30.06,29.92,18,5,23,0.00
2014-4-25,67.2,49.7,37.2,46.3,31.6,17.9,91,54,27,30.03,29.74,13,3,18,0.38
2014-4-26,71.9,57.3,45.7,51.2,42.7,30.3,96,63,27,29.90,29.66,19,5,27,0.01
2014-4-27,60.2,51.8,42.5,41.1,35.9,32.8,76,55,41,30.13,29.90,15,5,20,0.00
2014-4-28,62.9,52.7,39.3,47.6,38.5,33.3,84,60,39,30.14,29.98,9,2,12,0.00
2014-4-29,52.1,46.6,42.1,48.1,43.0,40.6,96,87,75,30.30,30.06,16,7,28,0.55
2014-4-30,53.1,46.2,41.9,53.0,45.6,40.8,100,98,95,30.31,29.86,14,4,22,2.84
2014-5-1,74.5,62.2,53.1,60.6,55.6,43.5,100,82,49,29.85,29.67,15,3,20,0.15
2014-5-2,65.0,58.2,52.1,46.0,42.2,39.1,72,56,44,29.86,29.75,15,4,21,0.00
2014-5-3,66.4,55.1,44.2,53.2,46.0,39.6,97,73,47,29.88,29.72,17,2,24,0.14
2014-5-4,61.3,54.7,47.4,49.4,41.0,31.0,95,62,34,29.88,29.74,16,4,26,0.00
2014-5-5,66.8,55.4,45.1,39.7,36.3,29.9,73,51,27,29.98,29.86,14,4,22,0.00
2014-5-6,70.2,57.5,44.0,42.0,36.5,31.9,73,48,29,30.07,29.88,13,3,20,0.00
2014-5-7,65.0,55.8,45.3,51.0,39.8,33.6,83,57,35,30.23,30.07,11,2,14,0.01
2014-5-8,75.7,62.0,54.5,61.4,54.4,47.4,91,77,59,30.16,30.01,7,2,12,0.00
2014-5-9,72.0,62.5,56.0,64.4,59.2,55.1,99,90,76,30.13,29.92,8,3,12,0.00
2014-5-10,79.5,67.8,61.5,67.0,62.7,60.3,99,86,54,29.93,29.85,23,3,33,0.49
2014-5-11,77.8,67.0,57.3,60.9,54.5,47.1,98,68,40,30.08,29.89,13,3,18,0.01
2014-5-12,83.6,70.1,54.5,66.1,58.5,51.1,90,68,45,30.11,30.00,11,2,15,0.00
2014-5-13,78.0,67.2,54.4,68.2,58.6,45.8,98,75,52,30.22,30.00,10,3,18,0.00
2014-5-14,68.5,59.3,51.6,63.4,55.0,45.3,97,86,73,30.27,30.14,9,3,13,0.00
2014-5-15,80.5,68.7,59.5,70.1,64.4,59.2,100,88,62,30.17,29.95,16,4,24,0.00
2014-5-16,71.0,63.7,55.4,66.6,60.6,51.2,99,90,79,29.95,29.77,15,4,22,1.02
2014-5-17,64.5,56.5,48.7,51.2,45.3,41.8,90,67,47,30.14,29.88,10,3,17,0.00
2014-5-18,63.4,55.1,46.0,47.6,42.6,37.4,84,64,41,30.22,30.13,12,3,18,0.00
2014-5-19,71.3,56.9,41.0,46.9,42.2,35.8,94,62,30,30.26,30.12,16,2,23,0.00
2014-5-20,74.8,62.3,46.6,56.9,48.6,43.8,93,64,37,30.18,30.00,12,2,16,0.03
2014-5-21,61.5,59.3,56.4,59.8,57.3,53.6,99,93,84,30.03,29.88,5,1,7,0.07
2014-5-22,80.3,63.7,57.7,67.6,61.8,57.4,100,95,57,29.89,29.71,8,1,10,1.17
2014-5-23,72.6,63.1,53.8,62.0,52.4,47.6,100,70,42,29.97,29.83,13,3,20,0.00
2014-5-24,73.5,63.7,55.4,57.7,53.6,49.9,91,71,49,30.09,29.96,11,4,15,0.00
2014-5-25,80.0,66.3,51.2,59.0,51.8,46.3,99,65,32,30.13,30.02,11,2,18,0.00
2014-5-26,83.8,72.2,58.0,60.2,55.0,49.6,77,57,37,30.08,29.90,13,3,17,0.00
2014-5-27,84.8,71.0,60.5,70.4,62.7,56.3,99,77,57,29.92,29.79,20,2,37,0.39
2014-5-28,76.5,65.1,55.9,71.0,63.2,53.3,100,94,78,30.12,29.78,8,3,15,0.01
2014-5-29,57.3,54.8,52.9,53.3,51.1,48.6,94,87,80,30.21,30.11,8,2,12,0.00
2014-5-30,77.0,64.0,53.6,59.5,54.0,49.6,99,74,42,30.15,29.99,11,2,15,0.02
2014-5-31,75.2,65.7,53.0,53.8,48.7,41.8,87,57,32,30.26,30.08,17,4,21,0.00
2014-6-1,75.1,64.3,51.3,57.8,53.3,50.2,97,70,47,30.35,30.21,8,2,12,0.00
2014-6-2,80.6,68.4,55.0,62.0,56.2,49.3,92,66,49,30.25,30.01,12,3,18,0.00
2014-6-3,85.6,73.0,61.4,74.0,65.0,58.8,96,77,57,30.02,29.78,13,2,18,0.32
2014-6-4,82.2,71.1,62.2,65.1,60.8,55.1,99,73,43,29.85,29.71,11,2,17,0.12
2014-6-5,75.4,66.5,59.0,63.2,57.5,53.1,97,75,49,29.82,29.63,13,3,18,0.14
2014-6-6,75.4,66.2,58.6,59.1,53.4,51.1,82,64,48,29.96,29.80,12,4,15,0.00
2014-6-7,82.3,68.6,53.3,60.9,55.4,51.6,97,66,36,30.02,29.90,10,2,13,0.00
2014-6-8,83.0,70.5,56.3,65.6,59.2,53.9,94,70,47,29.95,29.82,11,3,15,0.10
2014-6-9,76.6,69.3,64.0,70.3,66.3,62.1,97,91,80,29.91,29.83,7,2,9,0.06
2014-6-10,80.5,72.1,67.2,72.8,69.1,66.9,99,91,73,29.94,29.86,7,2,8,0.82
2014-6-11,73.0,66.0,61.9,69.9,64.6,61.4,99,95,89,30.05,29.93,9,4,17,0.17
2014-6-12,72.5,65.5,60.2,70.0,65.1,60.2,100,99,90,30.05,29.86,9,3,13,0.58
2014-6-13,80.6,70.8,67.3,74.0,69.7,65.2,100,97,71,29.85,29.71,16,1,25,1.14
2014-6-14,69.7,65.8,58.7,67.5,56.7,50.9,99,73,57,30.07,29.80,12,4,20,0.01
2014-6-15,81.2,67.8,55.8,60.8,55.4,50.7,84,66,44,30.15,30.04,10,2,15,0.00
2014-6-16,86.4,73.2,55.5,68.4,61.7,54.1,96,70,45,30.13,29.99,9,2,12,0.00
2014-6-17,89.5,79.3,66.8,74.4,70.0,65.9,98,75,51,30.06,29.88,9,3,14,0.01
2014-6-18,89.4,82.2,73.9,73.3,68.1,60.3,82,63,47,29.96,29.83,13,4,23,0.00
2014-6-19,74.8,71.1,67.0,69.5,67.4,64.5,99,88,72,30.02,29.89,12,1,18,0.20
2014-6-20,79.3,68.7,53.7,65.4,54.4,49.9,96,63,38,30.03,29.90,10,2,13,0.00
2014-6-21,77.4,69.6,63.1,62.1,56.2,49.7,83,63,53,29.95,29.85,9,2,12,0.00
2014-6-22,78.8,69.3,57.5,65.0,60.5,56.3,96,75,55,30.00,29.89,8,1,87,0.00
2014-6-23,81.3,71.9,61.3,66.9,61.5,56.8,96,71,51,30.11,30.00,10,3,17,0.00
2014-6-24,83.7,74.1,64.7,69.5,63.6,58.4,85,71,50,30.12,29.97,13,4,20,0.00
2014-6-25,88.2,77.2,68.4,74.8,70.7,66.0,99,82,59,29.99,29.77,14,3,20,0.95
2014-6-26,83.2,75.5,68.5,71.2,67.9,64.7,100,79,55,29.96,29.80,12,3,16,0.01
2014-6-27,83.3,74.2,66.2,70.2,66.2,60.8,92,77,56,30.18,29.96,8,2,12,0.00
2014-6-28,84.3,73.4,61.1,67.6,63.6,59.1,94,73,51,30.27,30.17,7,2,10,0.00
2014-6-29,82.8,74.2,62.8,66.6,62.9,55.7,95,69,51,30.23,30.08,12,2,14,0.00
2014-6-30,84.9,76.1,66.8,70.7,64.3,53.5,83,67,55,30.10,29.91,11,3,14,0.00
2014-7-1,89.0,79.7,68.1,76.0,71.7,66.6,96,78,58,29.94,29.78,13,4,20,0.00
2014-7-2,92.0,78.8,71.0,80.7,74.3,70.6,100,87,66,29.90,29.78,20,2,27,0.99
2014-7-3,88.5,76.8,70.6,78.8,73.4,70.3,100,90,66,29.97,29.84,11,2,15,0.19
2014-7-4,74.3,68.8,64.5,70.9,61.0,49.9,99,79,47,30.11,29.95,15,4,28,0.64
2014-7-5,80.0,69.5,59.9,58.1,53.9,50.1,79,59,40,30.22,30.10,11,3,16,0.00
2014-7-6,83.0,72.1,57.8,65.5,60.3,54.8,91,68,46,30.11,29.91,13,4,18,0.00
2014-7-7,88.2,80.4,72.4,71.5,68.4,65.2,84,68,51,29.91,29.72,20,6,28,0.00
2014-7-8,89.5,80.0,69.1,74.6,69.7,66.5,93,72,55,29.80,29.61,18,4,32,0.09
2014-7-9,86.0,73.9,65.6,73.2,69.0,65.0,99,86,57,29.95,29.76,16,3,23,0.18
2014-7-10,83.8,73.8,64.5,70.4,66.0,62.1,99,79,52,30.12,29.94,11,2,15,0.07
2014-7-11,84.5,73.9,64.2,69.9,66.3,63.6,99,79,51,30.19,30.10,7,2,11,0.23
2014-7-12,85.5,74.9,65.5,73.9,68.9,64.6,98,83,57,30.20,30.08,9,2,14,0.05
2014-7-13,85.0,77.7,70.8,76.5,72.5,69.3,98,85,72,30.09,29.84,15,4,21,0.41
2014-7-14,84.4,73.8,68.3,76.1,71.6,68.0,100,93,73,29.90,29.76,6,1,10,1.34
2014-7-15,80.7,73.6,69.5,76.7,72.4,69.5,100,96,82,29.82,29.69,6,1,7,0.19
2014-7-16,78.5,71.7,62.9,69.8,62.9,56.5,100,76,48,29.89,29.73,10,2,12,0.03
2014-7-17,78.2,69.1,59.4,62.1,58.0,54.0,92,69,49,30.11,29.89,10,2,15,0.00
2014-7-18,80.2,69.0,56.1,62.7,57.7,52.1,94,70,40,30.23,30.11,6,1,10,0.00
2014-7-19,79.2,71.0,63.6,64.9,60.4,56.2,90,71,47,30.21,30.12,9,2,13,0.03
2014-7-20,80.3,71.4,64.1,65.8,63.2,60.3,94,77,54,30.14,30.06,9,2,12,0.02
2014-7-21,81.0,72.1,62.8,68.8,65.4,61.7,98,81,60,30.19,30.10,7,1,8,0.00
2014-7-22,85.3,75.5,64.5,74.8,69.2,63.6,98,82,67,30.17,30.02,9,3,13,0.00
2014-7-23,89.3,77.3,70.4,77.1,71.5,66.7,100,83,61,30.02,29.73,13,3,21,0.94
2014-7-24,78.9,71.4,64.0,71.0,62.2,54.7,100,75,49,29.93,29.82,12,3,18,0.00
2014-7-25,80.3,68.2,55.5,62.3,56.7,52.7,92,69,42,30.04,29.93,8,2,10,0.00
2014-7-26,83.5,71.0,61.2,67.5,61.5,56.5,91,74,41,29.99,29.85,8,2,12,0.00
2014-7-27,88.0,76.2,67.7,75.0,69.0,63.8,99,80,56,29.86,29.60,9,2,20,0.51
2014-7-28,80.1,70.7,65.3,69.0,64.8,59.1,100,83,53,29.76,29.51,13,4,23,0.01
2014-7-29,73.7,66.1,59.3,60.3,57.0,54.1,89,74,53,29.98,29.76,9,2,12,0.00
2014-7-30,76.5,65.7,53.3,61.4,57.0,52.1,98,76,51,30.04,29.97,9,2,14,0.00
2014-7-31,82.1,71.1,60.4,66.5,62.4,57.6,95,75,53,30.11,30.02,11,2,17,0.00
2014-8-1,83.0,71.5,64.5,73.1,67.2,63.3,98,87,63,30.17,30.10,18,2,22,0.00
2014-8-2,76.9,70.9,66.5,68.2,66.3,63.5,99,86,70,30.16,30.05,10,2,13,0.00
2014-8-3,73.2,69.6,65.7,68.2,66.4,64.8,97,90,80,30.09,30.01,6,1,8,0.00
2014-8-4,81.4,72.2,65.5,68.2,66.4,64.5,99,83,60,30.08,30.01,8,2,10,0.00
2014-8-5,86.4,74.3,62.2,69.9,65.2,61.3,100,76,47,30.05,29.90,14,2,22,0.00
2014-8-6,80.0,70.6,62.5,68.4,63.1,60.8,95,78,55,29.92,29.85,8,2,12,0.00
2014-8-7,81.1,70.4,59.1,62.2,59.5,55.5,91,70,46,30.03,29.91,9,2,15,0.00
2014-8-8,80.5,68.6,55.5,62.1,56.9,52.7,92,69,44,30.12,30.03,7,2,12,0.00
2014-8-9,82.8,70.3,57.8,65.4,58.9,54.5,97,70,40,30.12,30.05,8,2,12,0.00
2014-8-10,85.3,71.7,58.2,67.6,60.4,55.8,96,71,40,30.13,30.05,7,1,9,0.00
2014-8-11,83.0,72.0,60.5,67.7,61.6,56.9,96,72,42,30.12,30.03,13,2,16,0.00
2014-8-12,71.7,69.4,67.2,71.4,67.9,64.0,100,95,80,30.03,29.78,10,2,17,0.85
2014-8-13,80.1,72.3,66.7,72.0,66.0,56.6,100,82,60,29.83,29.70,13,3,21,0.08
2014-8-14,76.3,66.0,58.4,65.8,56.6,52.4,96,73,50,29.90,29.81,12,3,16,0.13
2014-8-15,73.8,64.7,55.7,57.9,52.8,48.8,89,67,47,29.98,29.90,11,3,17,0.00
2014-8-16,77.2,64.7,52.0,60.4,55.2,50.9,97,74,46,30.01,29.91,9,2,13,0.00
2014-8-17,80.7,68.3,59.8,69.1,60.8,55.6,94,79,53,29.91,29.83,12,2,17,0.02
2014-8-18,81.4,68.7,56.6,65.6,60.7,55.4,97,77,51,29.93,29.80,10,2,13,0.00
2014-8-19,82.3,71.7,58.7,67.8,62.7,56.1,93,75,55,29.90,29.83,7,1,9,0.00
2014-8-20,82.7,74.4,65.5,70.3,66.8,64.0,96,78,61,30.00,29.90,8,2,12,0.00
2014-8-21,81.5,73.2,64.7,73.5,68.7,62.9,98,86,73,30.03,29.94,7,1,9,0.09
2014-8-22,77.3,70.4,66.1,70.7,67.4,64.0,99,90,76,30.01,29.94,8,2,10,0.01
2014-8-23,69.6,65.4,62.5,65.7,63.6,60.7,100,94,79,30.12,29.99,8,2,14,0.94
2014-8-24,79.3,69.1,60.4,66.3,61.9,57.9,100,80,49,30.15,30.08,7,2,12,0.01
2014-8-25,83.2,70.0,57.9,66.8,62.4,57.6,100,79,50,30.18,30.10,7,2,10,0.00
2014-8-26,86.5,72.2,59.8,69.6,64.1,59.1,99,78,47,30.16,30.04,8,1,10,0.00
2014-8-27,88.0,75.6,62.2,73.5,67.7,61.6,99,78,56,30.06,29.85,10,2,14,0.00
2014-8-28,76.0,70.4,61.7,69.0,58.9,51.0,83,68,50,30.08,29.86,14,4,21,0.00
2014-8-29,77.3,64.9,52.9,60.2,55.2,50.3,94,72,50,30.22,30.08,8,2,10,0.00
2014-8-30,78.2,67.9,57.2,67.3,62.3,56.4,98,83,65,30.24,30.10,10,2,13,0.00
2014-8-31,85.3,75.7,70.6,76.5,72.2,66.1,100,89,71,30.12,29.94,17,1,20,0.31
2014-9-1,86.1,77.2,71.1,76.6,73.2,71.1,100,89,69,30.00,29.89,9,1,13,0.01
2014-9-2,89.1,79.5,70.1,75.7,71.9,68.0,100,79,55,29.93,29.79,14,4,21,0.02
2014-9-3,81.3,73.2,64.3,69.7,65.3,62.3,94,77,55,30.11,29.86,7,2,10,0.00
2014-9-4,85.8,72.9,60.2,69.6,65.2,59.6,99,79,52,30.18,30.07,9,2,12,0.01
2014-9-5,85.7,75.3,68.8,77.2,71.8,67.0,96,89,72,30.15,29.99,5,1,7,0.00
2014-9-6,89.0,75.9,64.9,78.2,72.1,62.8,100,89,66,29.99,29.83,15,2,26,0.35
2014-9-7,77.2,67.8,60.9,62.7,58.2,52.2,96,74,44,30.17,29.95,10,3,15,0.00
2014-9-8,73.3,64.7,54.8,64.0,57.9,53.4,97,80,61,30.28,30.16,9,2,13,0.00
2014-9-9,73.3,67.4,63.6,63.4,60.4,57.1,86,78,69,30.23,30.10,11,3,13,0.00
2014-9-10,76.3,69.3,60.9,66.2,63.0,59.4,96,81,67,30.10,29.97,6,1,8,0.00
2014-9-11,82.8,74.1,67.4,72.5,67.9,62.2,93,82,67,29.98,29.82,10,3,16,0.00
2014-9-12,72.9,64.1,56.2,62.2,55.1,50.8,89,73,55,30.16,29.95,12,3,15,0.00
2014-9-13,61.9,57.7,53.7,61.4,55.4,50.2,99,92,83,30.20,30.08,7,1,12,0.17
2014-9-14,66.9,56.2,47.7,54.5,50.3,47.2,99,82,55,30.32,30.18,9,2,12,0.01
2014-9-15,71.0,57.2,44.6,54.3,49.9,44.1,99,79,50,30.25,30.05,8,1,10,0.00
2014-9-16,72.4,61.4,53.0,59.9,54.9,51.1,98,81,55,30.05,29.96,9,2,13,0.01
2014-9-17,72.1,60.0,50.2,55.9,52.0,49.0,99,77,48,30.06,29.94,7,1,9,0.01
2014-9-18,74.8,60.0,48.2,58.0,51.0,46.8,98,76,41,30.11,29.94,8,2,12,0.00
2014-9-19,69.0,59.0,48.7,55.9,52.0,47.1,96,79,61,30.32,30.10,12,2,16,0.00
2014-9-20,78.3,65.0,55.4,63.8,58.5,53.1,96,81,59,30.31,30.04,12,3,18,0.00
2014-9-21,79.7,66.5,57.1,67.6,62.3,56.5,100,88,64,30.04,29.59,7,1,10,0.09
2014-9-22,67.6,62.1,52.4,63.6,51.2,43.3,96,68,52,30.19,29.66,14,4,21,0.00
2014-9-23,71.2,56.7,43.8,53.0,46.8,42.1,96,72,41,30.39,30.20,7,2,9,0.00
2014-9-24,71.6,59.1,47.0,57.5,52.4,46.1,99,80,57,30.52,30.39,11,3,17,0.00
2014-9-25,62.7,59.5,55.8,60.0,56.7,53.9,98,91,80,30.42,30.23,11,4,15,0.77
2014-9-26,76.2,62.2,50.4,60.1,55.4,50.1,100,81,50,30.25,30.15,12,2,15,0.01
2014-9-27,82.2,64.9,51.5,63.9,56.9,51.0,100,78,43,30.23,30.14,7,2,10,0.01
2014-9-28,83.2,66.5,54.1,65.7,59.1,53.5,99,80,43,30.17,30.00,8,1,10,0.00
2014-9-29,74.9,66.6,59.6,64.7,61.5,58.1,96,84,62,30.00,29.88,7,1,8,0.00
2014-9-30,77.3,66.7,60.0,64.2,60.8,57.8,100,83,56,29.95,29.84,8,1,12,0.01
2014-10-1,74.8,64.9,58.2,61.4,59.3,56.6,99,83,59,30.06,29.94,9,2,12,0.00
2014-10-2,67.8,61.0,53.7,60.9,58.0,53.4,100,90,75,30.14,30.05,5,1,8,0.01
2014-10-3,72.3,62.1,54.4,61.6,58.0,53.8,100,87,67,30.09,29.75,8,2,13,0.03
2014-10-4,65.3,58.7,45.6,63.1,52.5,35.6,100,81,54,29.77,29.56,14,3,20,0.31
2014-10-5,58.1,47.4,36.0,42.4,38.5,34.3,95,73,50,29.98,29.76,12,2,17,0.00
2014-10-6,72.0,55.8,38.7,52.1,45.5,37.8,98,72,40,30.03,29.92,15,2,24,0.00
2014-10-7,69.2,62.2,57.8,59.9,55.0,50.8,93,78,57,30.01,29.80,10,1,15,0.10
2014-10-8,72.2,63.2,54.0,60.4,52.8,44.3,98,72,44,29.96,29.78,16,4,23,0.27
2014-10-9,70.5,58.2,44.8,46.5,43.7,40.2,90,61,37,30.07,29.94,18,3,25,0.00
2014-10-10,60.1,54.0,45.5,50.9,46.5,41.9,92,77,56,30.12,30.05,5,1,8,0.00
2014-10-11,54.8,51.0,45.5,51.7,49.5,45.0,98,95,87,30.18,30.02,8,2,10,0.27
2014-10-12,63.4,50.1,39.6,46.8,42.9,38.6,100,80,44,30.30,30.18,8,1,12,0.01
2014-10-13,61.6,56.6,50.5,61.6,53.9,45.5,100,91,81,30.30,30.20,4,1,7,0.03
2014-10-14,77.0,69.4,61.6,67.6,65.5,61.6,100,88,71,30.20,30.00,14,4,21,0.01
2014-10-15,73.7,69.9,65.4,70.7,67.8,64.8,100,93,85,30.01,29.71,15,4,22,1.18
2014-10-16,68.6,61.6,56.4,68.0,59.3,56.1,100,92,70,29.71,29.65,11,2,17,0.56
2014-10-17,70.6,60.9,52.8,58.7,55.3,52.8,100,84,57,29.75,29.64,13,3,17,0.00
2014-10-18,67.0,57.5,51.4,57.4,50.0,42.9,100,78,55,29.79,29.57,12,3,24,0.00
2014-10-19,54.3,48.5,39.1,44.7,36.5,29.4,85,64,42,30.07,29.78,15,4,28,0.00
2014-10-20,61.2,47.4,33.5,50.2,40.1,32.0,95,77,53,30.12,29.92,14,2,20,0.01
2014-10-21,65.9,56.6,49.2,54.8,51.3,48.7,99,84,61,29.92,29.79,6,1,10,0.04
2014-10-22,56.1,54.2,51.6,52.7,50.5,46.9,93,87,81,29.92,29.83,17,7,24,0.10
2014-10-23,54.9,52.6,50.3,47.8,46.6,45.6,86,80,76,29.86,29.79,16,7,26,0.02
2014-10-24,67.8,59.4,54.4,50.3,46.0,38.3,79,62,42,29.89,29.79,16,4,24,0.00
2014-10-25,68.4,57.9,43.0,49.6,45.0,39.3,90,63,46,29.90,29.60,15,3,21,0.00
2014-10-26,64.0,58.3,50.6,50.1,41.3,37.1,71,54,42,29.88,29.58,19,4,28,0.00
2014-10-27,66.3,53.2,40.4,44.3,39.7,36.4,88,62,37,30.06,29.88,11,2,16,0.00
2014-10-28,75.6,58.9,45.5,58.8,49.5,40.1,91,72,48,30.02,29.87,8,1,13,0.00
2014-10-29,67.1,56.9,45.0,58.6,52.5,44.4,99,86,62,29.96,29.85,11,2,17,0.06
2014-10-30,57.1,47.1,38.6,46.7,40.8,35.6,100,81,51,30.03,29.94,10,2,15,0.01
2014-10-31,54.8,44.2,33.3,40.2,36.6,32.0,98,76,47,30.03,29.84,7,2,14,0.00
2014-11-1,49.7,46.5,43.4,43.3,39.9,33.6,92,78,59,29.88,29.78,14,6,23,0.18
2014-11-2,47.7,42.7,40.1,34.4,27.7,19.0,75,56,39,30.15,29.85,19,8,30,0.00
2014-11-3,60.2,48.8,37.0,34.2,26.8,18.6,74,46,21,30.24,30.13,12,3,21,0.00
2014-11-4,70.8,58.5,46.9,41.4,31.4,23.8,57,37,17,30.17,30.00,12,2,17,0.00
2014-11-5,60.5,55.4,48.2,47.7,41.0,36.3,77,59,42,30.16,30.00,6,0,12,0.00
2014-11-6,49.1,47.3,45.6,48.2,46.2,41.4,100,96,75,30.12,29.62,0,0,0,0.45
2014-11-7,51.2,44.9,36.4,46.2,35.6,27.0,99,71,49,30.00,29.62,5,0,9,0.00
2014-11-8,48.5,40.3,29.5,35.8,30.8,26.1,89,70,52,30.05,29.90,10,3,14,0.00
2014-11-9,55.0,44.3,36.0,39.7,35.0,31.9,93,72,45,30.02,29.89,10,2,17,0.00
2014-11-10,63.0,47.0,32.9,44.5,37.6,31.1,100,72,47,30.17,30.02,9,2,12,0.00
2014-11-11,59.6,50.3,37.9,57.5,47.8,36.3,96,91,82,30.11,29.89,4,1,5,0.00
2014-11-12,64.5,54.6,40.0,58.3,45.5,31.1,96,74,43,30.09,29.85,12,3,21,0.00
2014-11-13,42.9,37.6,32.7,34.0,30.9,28.0,98,78,59,30.14,30.02,6,2,9,0.09
2014-11-14,39.9,35.2,31.2,33.9,25.6,22.1,97,69,50,30.24,30.01,11,4,20,0.15
2014-11-15,42.6,34.1,27.4,25.8,23.3,20.3,84,66,43,30.38,30.23,11,3,15,0.00
2014-11-16,42.4,36.1,27.2,35.7,28.0,22.6,94,73,55,30.37,30.05,11,2,16,0.05
2014-11-17,45.7,39.8,36.8,45.7,38.2,29.3,100,94,71,30.05,29.52,11,3,20,0.69
2014-11-18,37.9,26.3,20.9,27.7,10.3,5.5,67,51,39,30.17,29.70,20,7,32,0.00
2014-11-19,30.3,25.0,17.1,17.4,11.6,7.5,70,57,44,30.33,30.02,13,4,18,0.00
2014-11-20,45.5,33.5,23.2,29.0,19.9,12.7,79,58,42,30.09,29.88,14,4,21,0.00
2014-11-21,35.7,29.3,25.0,15.7,12.8,11.1,61,50,38,30.52,30.09,14,4,23,0.00
2014-11-22,43.1,32.9,18.8,25.9,18.6,12.4,82,57,37,30.52,30.21,12,3,18,0.00
2014-11-23,59.6,46.2,36.1,45.0,29.6,22.8,87,54,32,30.22,29.88,9,2,12,0.00
2014-11-24,69.8,63.2,48.3,62.3,57.5,45.3,100,83,68,29.88,29.53,23,10,36,0.31
2014-11-25,61.5,50.4,39.6,56.9,37.6,31.9,89,63,44,30.17,29.74,11,3,17,0.00
2014-11-26,44.4,36.3,33.2,36.1,33.5,32.0,97,90,64,30.19,29.87,10,3,17,0.55
2014-11-27,37.0,33.9,30.3,33.8,30.6,28.0,100,88,78,30.11,29.92,8,2,12,0.33
2014-11-28,35.5,31.2,26.6,30.3,22.8,18.3,94,72,53,30.27,30.10,11,3,21,0.03
2014-11-29,35.0,28.6,21.5,26.5,22.1,18.2,95,77,62,30.35,30.17,7,2,10,0.01
2014-11-30,44.5,39.2,32.9,37.9,34.2,26.5,92,82,75,30.17,30.06,4,2,5,0.03
2014-12-1,63.3,45.8,36.9,53.9,40.8,29.3,96,83,68,30.48,30.08,13,3,23,0.19
2014-12-2,38.7,34.1,31.8,35.4,28.7,23.7,99,81,64,30.59,30.28,10,4,14,0.35
2014-12-3,43.3,38.6,35.1,42.9,36.7,27.9,99,93,68,30.28,29.99,8,2,16,0.11
2014-12-4,42.5,36.3,31.3,30.1,27.4,25.8,82,70,55,30.50,30.25,11,3,17,0.00
2014-12-5,37.5,34.0,27.9,36.7,30.4,23.5,98,87,75,30.55,30.34,6,1,9,0.25
2014-12-6,44.1,40.5,37.0,43.8,39.7,34.0,99,97,77,30.34,30.07,15,3,23,0.47
2014-12-7,45.7,37.7,29.9,34.0,23.0,17.4,77,57,33,30.60,30.24,17,6,23,0.00
2014-12-8,32.4,28.8,24.5,30.3,18.4,8.4,92,65,49,30.65,30.28,11,5,16,0.00
2014-12-9,44.2,38.6,31.8,42.6,36.5,28.5,98,92,86,30.29,29.79,12,5,20,0.53
2014-12-10,40.7,37.8,32.8,37.5,31.6,25.2,89,78,72,29.80,29.70,13,6,26,0.07
2014-12-11,35.1,32.2,30.1,31.5,28.8,26.6,96,87,76,29.93,29.73,14,5,25,0.04
2014-12-12,39.5,35.6,31.5,32.8,28.6,26.4,86,76,63,30.05,29.93,11,3,22,0.01
2014-12-13,39.3,36.0,31.3,32.7,29.9,26.1,82,78,73,30.07,29.95,9,4,15,0.00
2014-12-14,45.3,42.1,35.6,38.3,35.6,30.1,83,78,72,30.01,29.91,12,3,17,0.00
2014-12-15,45.5,39.9,31.2,37.9,34.9,29.8,95,82,73,30.10,30.00,11,3,15,0.00
2014-12-16,45.0,38.8,29.8,45.0,38.4,28.8,100,99,95,30.09,29.85,7,2,10,0.33
2014-12-17,51.2,43.1,35.3,44.7,37.0,25.5,100,80,64,29.98,29.83,14,5,20,0.03
2014-12-18,37.0,35.2,32.8,28.9,26.6,21.7,78,71,64,30.08,29.96,12,4,22,0.00
2014-12-19,41.1,36.0,33.6,28.5,26.5,24.0,77,68,55,30.20,30.02,13,4,20,0.00
2014-12-20,34.1,32.8,31.3,25.0,24.2,22.6,74,70,68,30.31,30.18,8,2,10,0.00
2014-12-21,35.5,31.2,25.1,27.2,24.7,21.8,88,77,66,30.35,30.27,8,2,13,0.00
2014-12-22,41.0,33.1,22.4,39.2,29.9,20.4,98,88,78,30.35,30.11,11,2,14,0.05
2014-12-23,47.9,44.6,39.3,47.6,44.4,38.5,100,99,97,30.10,30.02,9,3,12,0.20
2014-12-24,61.2,49.7,45.4,60.4,49.7,45.4,100,100,97,30.05,29.47,18,4,26,0.68
2014-12-25,61.9,48.1,39.4,60.4,39.9,31.1,96,74,56,30.17,29.47,25,6,33,0.08
2014-12-26,49.1,38.7,32.2,36.1,32.0,28.8,93,78,57,30.31,30.15,7,2,13,0.00
2014-12-27,58.7,41.9,30.7,39.2,34.4,29.0,97,77,45,30.29,30.05,7,2,9,0.00
2014-12-28,52.7,45.7,39.3,45.6,40.6,34.1,97,83,69,30.09,29.88,8,2,15,0.06
2014-12-29,44.2,37.7,28.3,34.5,26.6,21.1,84,65,44,30.26,30.09,10,2,12,0.00
2014-12-30,36.4,29.4,22.4,24.8,19.1,13.0,88,67,38,30.42,30.26,10,2,20,0.00
2014-12-31,32.4,25.9,20.3,17.8,13.6,10.2,86,61,40,30.41,30.19,12,3,20,0.00
2015-1-1,40.4,30.0,19.9,20.8,16.0,11.4,70,56,40,30.19,29.99,18,4,25,0.00
2015-1-2,42.4,33.5,27.2,25.5,22.2,19.2,81,64,50,30.44,30.04,12,2,20,0.00